When you browse on this site, cookies collect data to enhance your experience and personalize the content and advertising you see.
Visit our Privacy Policy to learn more. By continuing to use the site, you agree to this use of cookies and data.
  • In Hungary
  • List of Countries
  • For 7 days
  • Water Temperature
  • Satellite Maps
  • Weather Map
  • News
  • Weather Widgets
  • user-avatar
    Login

    Hourly Weather Chorowo

    Today, 24 January, Thursday

    Time Temperature Precipitation Wind Pressure Humidity
    00:00 -8°C° 0 mm 3 mps 751 mmHg 77%
    01:00 -7°C° 0 mm 2 mps 751 mmHg 81%
    02:00 -7°C° 0 mm 2 mps 752 mmHg 81%
    03:00 -7°C° 0 mm 2 mps 752 mmHg 81%
    04:00 -8°C° 0 mm 2 mps 752 mmHg 81%
    05:00 -8°C° 0 mm 2 mps 752 mmHg 81%
    06:00 -8°C° 0 mm 2 mps 752 mmHg 81%
    07:00 -8°C° 0 mm 2 mps 753 mmHg 81%
    08:00 -8°C° 0 mm 3 mps 753 mmHg 78%
    09:00 -8°C° 0 mm 3 mps 753 mmHg 75%
    10:00 -7°C° 0 mm 3 mps 754 mmHg 72%
    11:00 -7°C° 0 mm 3 mps 754 mmHg 69%
    12:00 -6°C° 0 mm 3 mps 754 mmHg 66%
    13:00 -5°C° 0 mm 3 mps 754 mmHg 62%
    14:00 -5°C° 0 mm 3 mps 754 mmHg 64%
    15:00 -6°C° 0 mm 3 mps 754 mmHg 66%
    16:00 -6°C° 0 mm 3 mps 754 mmHg 68%
    17:00 -7°C° 0 mm 3 mps 754 mmHg 70%
    18:00 -7°C° 0 mm 3 mps 754 mmHg 72%
    19:00 -7°C° 0 mm 3 mps 754 mmHg 75%
    20:00 -8°C° 0 mm 3 mps 754 mmHg 76%
    21:00 -8°C° 0 mm 3 mps 754 mmHg 77%
    22:00 -7°C° 0 mm 2 mps 754 mmHg 78%
    23:00 -7°C° 0 mm 2 mps 754 mmHg 79%

    Tomorrow, 25 January, Friday

    Time Temperature Precipitation Wind Pressure Humidity
    00:00 -7°C° 0 mm 2 mps 754 mmHg 80%
    01:00 -8°C° 0 mm 2 mps 754 mmHg 81%
    02:00 -8°C° 0 mm 2 mps 754 mmHg 82%
    03:00 -8°C° 0 mm 2 mps 754 mmHg 82%
    04:00 -8°C° 0 mm 2 mps 754 mmHg 83%
    05:00 -7°C° 0 mm 1 mps 753 mmHg 83%
    06:00 -7°C° 0 mm 1 mps 753 mmHg 84%
    07:00 -7°C° 0 mm 1 mps 753 mmHg 84%
    08:00 -7°C° 0 mm 1 mps 753 mmHg 82%
    09:00 -7°C° 0 mm 1 mps 753 mmHg 80%
    10:00 -6°C° 0 mm 1 mps 753 mmHg 77%
    11:00 -6°C° 0 mm 1 mps 753 mmHg 74%
    12:00 -4°C° 0 mm 1 mps 753 mmHg 72%
    13:00 -3°C° 0 mm 1 mps 753 mmHg 69%
    14:00 -3°C° 0 mm 1 mps 753 mmHg 70%
    15:00 -4°C° 0 mm 1 mps 753 mmHg 72%
    16:00 -4°C° 0 mm 1 mps 752 mmHg 74%
    17:00 -6°C° 0 mm 2 mps 752 mmHg 74%
    18:00 -6°C° 0 mm 2 mps 752 mmHg 75%
    19:00 -6°C° 0 mm 2 mps 752 mmHg 76%
    20:00 -6°C° 0 mm 2 mps 752 mmHg 77%
    21:00 -6°C° 0 mm 2 mps 751 mmHg 77%
    22:00 -7°C° 0 mm 3 mps 751 mmHg 77%
    23:00 -7°C° 0 mm 3 mps 750 mmHg 76%

    Day after tomorrow, 26 January, Saturday

    Time Temperature Precipitation Wind Pressure Humidity
    00:00 -7°C° 0 mm 3 mps 750 mmHg 75%
    01:00 -7°C° 0 mm 3 mps 749 mmHg 74%
    02:00 -7°C° 0.1 mm 3 mps 748 mmHg 77%
    03:00 -7°C° 0.1 mm 3 mps 747 mmHg 79%
    04:00 -8°C° 0.1 mm 4 mps 746 mmHg 81%
    05:00 -8°C° 0.4 mm 4 mps 746 mmHg 84%
    06:00 -8°C° 0.4 mm 4 mps 745 mmHg 87%
    07:00 -7°C° 0.4 mm 3 mps 744 mmHg 89%
    08:00 -6°C° 0.2 mm 3 mps 744 mmHg 89%
    09:00 -5°C° 0.2 mm 2 mps 743 mmHg 88%
    10:00 -2°C° 0.2 mm 1 mps 743 mmHg 88%
    11:00 -2°C° 0 mm 1 mps 743 mmHg 86%
    12:00 -1°C° 0 mm 1 mps 743 mmHg 85%
    13:00 -1°C° 0 mm 0 mps 742 mmHg 83%
    14:00 -1°C° 0.5 mm 1 mps 743 mmHg 86%
    15:00 -3°C° 0.5 mm 2 mps 743 mmHg 89%
    16:00 -4°C° 0.5 mm 2 mps 743 mmHg 92%
    17:00 -4°C° 0.1 mm 2 mps 743 mmHg 92%
    18:00 -4°C° 0.1 mm 2 mps 743 mmHg 91%
    19:00 -5°C° 0.1 mm 2 mps 743 mmHg 90%
    20:00 -5°C° 0 mm 2 mps 744 mmHg 91%
    21:00 -5°C° 0 mm 2 mps 744 mmHg 91%
    22:00 -6°C° 0 mm 2 mps 744 mmHg 92%
    23:00 -6°C° 0 mm 2 mps 744 mmHg 91%

    27 January, Sunday

    Time Temperature Precipitation Wind Pressure Humidity
    00:00 -6°C° 0 mm 2 mps 744 mmHg 91%
    01:00 -6°C° 0 mm 2 mps 744 mmHg 91%
    02:00 -6°C° 0 mm 2 mps 744 mmHg 89%
    03:00 -6°C° 0 mm 3 mps 744 mmHg 87%
    04:00 -6°C° 0 mm 3 mps 743 mmHg 85%
    05:00 -7°C° 0 mm 4 mps 743 mmHg 83%
    06:00 -7°C° 0 mm 4 mps 743 mmHg 81%
    07:00 -6°C° 0 mm 5 mps 742 mmHg 80%
    08:00 -6°C° 0.2 mm 5 mps 742 mmHg 81%
    09:00 -6°C° 0.2 mm 5 mps 742 mmHg 82%
    10:00 -6°C° 0.2 mm 6 mps 741 mmHg 83%
    11:00 -6°C° 0.6 mm 6 mps 741 mmHg 85%
    12:00 -6°C° 0.6 mm 6 mps 740 mmHg 88%
    13:00 -6°C° 0.6 mm 6 mps 740 mmHg 90%
    14:00 -5°C° 0.5 mm 6 mps 739 mmHg 90%
    15:00 -5°C° 0.5 mm 5 mps 739 mmHg 90%
    16:00 -5°C° 0.5 mm 5 mps 738 mmHg 90%
    17:00 -5°C° 0.1 mm 5 mps 738 mmHg 90%
    18:00 -4°C° 0.1 mm 5 mps 738 mmHg 91%
    19:00 -4°C° 0.1 mm 5 mps 738 mmHg 92%
    20:00 -3°C° 0.1 mm 4 mps 737 mmHg 92%
    21:00 -3°C° 0.1 mm 4 mps 737 mmHg 92%
    22:00 -2°C° 0.1 mm 4 mps 737 mmHg 92%
    23:00 -2°C° 0.3 mm 4 mps 736 mmHg 93%

    28 January, Monday

    Time Temperature Precipitation Wind Pressure Humidity
    00:00 -2°C° 0.3 mm 4 mps 736 mmHg 93%
    01:00 -1°C° 0.3 mm 4 mps 736 mmHg 94%
    02:00 -1°C° 0.1 mm 4 mps 735 mmHg 94%
    03:00 -1°C° 0.1 mm 4 mps 735 mmHg 95%
    04:00 -1°C° 0.1 mm 4 mps 735 mmHg 95%
    05:00 -1°C° 0 mm 4 mps 735 mmHg 95%
    06:00 0°C° 0 mm 3 mps 735 mmHg 94%
    07:00 0°C° 0 mm 3 mps 734 mmHg 94%
    08:00 0°C° 0 mm 3 mps 735 mmHg 94%
    09:00 -1°C° 0 mm 4 mps 735 mmHg 93%
    10:00 -1°C° 0 mm 4 mps 735 mmHg 93%
    11:00 +1°C° 0 mm 3 mps 735 mmHg 93%
    12:00 +1°C° 0 mm 3 mps 735 mmHg 94%
    13:00 +1°C° 0 mm 3 mps 735 mmHg 94%
    14:00 +1°C° 0 mm 3 mps 735 mmHg 95%
    15:00 0°C° 0 mm 3 mps 735 mmHg 95%
    16:00 0°C° 0 mm 3 mps 735 mmHg 95%
    17:00 0°C° 0.3 mm 3 mps 735 mmHg 95%
    18:00 0°C° 0.3 mm 3 mps 735 mmHg 96%
    19:00 +1°C° 0.3 mm 2 mps 735 mmHg 96%
    20:00 +1°C° 0.5 mm 2 mps 735 mmHg 96%
    21:00 +1°C° 0.5 mm 2 mps 735 mmHg 96%
    22:00 +1°C° 0.5 mm 2 mps 735 mmHg 96%
    23:00 +1°C° 0.2 mm 2 mps 735 mmHg 97%

    29 January, Tuesday

    Time Temperature Precipitation Wind Pressure Humidity
    00:00 0°C° 0.2 mm 3 mps 735 mmHg 97%
    01:00 0°C° 0.2 mm 3 mps 735 mmHg 97%
    02:00 -1°C° 0.3 mm 4 mps 736 mmHg 94%
    03:00 -1°C° 0.3 mm 5 mps 736 mmHg 90%
    04:00 -1°C° 0.3 mm 5 mps 736 mmHg 86%
    05:00 -3°C° 0.1 mm 6 mps 737 mmHg 84%
    06:00 -3°C° 0.1 mm 6 mps 738 mmHg 82%
    07:00 -3°C° 0.1 mm 6 mps 739 mmHg 80%
    08:00 -3°C° 0 mm 6 mps 739 mmHg 79%
    09:00 -3°C° 0 mm 6 mps 740 mmHg 77%
    10:00 -3°C° 0 mm 6 mps 741 mmHg 75%
    11:00 -3°C° 0.1 mm 6 mps 741 mmHg 78%
    12:00 -3°C° 0.1 mm 6 mps 741 mmHg 82%
    13:00 -3°C° 0.1 mm 6 mps 742 mmHg 85%
    14:00 -2°C° 0 mm 5 mps 742 mmHg 85%
    15:00 -2°C° 0 mm 5 mps 742 mmHg 86%
    16:00 -2°C° 0 mm 4 mps 742 mmHg 87%
    17:00 -2°C° 0 mm 4 mps 742 mmHg 87%
    18:00 -2°C° 0 mm 4 mps 742 mmHg 86%
    19:00 -2°C° 0 mm 4 mps 742 mmHg 86%
    20:00 -2°C° 0.1 mm 5 mps 742 mmHg 87%
    21:00 -2°C° 0.1 mm 5 mps 742 mmHg 87%
    22:00 -2°C° 0.1 mm 5 mps 742 mmHg 87%
    23:00 -2°C° 0.1 mm 5 mps 742 mmHg 88%
    Show more